Simultaneous Nadir Overpasses (SNOs) Predictions

Prediction of SNOs between AQUA and NOAA-19 Satellite Orbit:

Table of predicted SNOs for the next 14.0 days since TLE Epoch: 3/29/2025
Index Date (AQUA) Time (AQUA) Lat,Lon (AQUA) SZA (AQUA ) Date (NOAA-19) Time (NOAA-19) Lat,Lon (NOAA-19) SZA (NOAA-19 ) Distance(km) Time Diff (sec)
1 03/29/2025 06:19:19 -75.60, -90.83 107.96 03/29/2025 06:18:06 -75.60, -91.04 107.97 5.70 73
2 03/29/2025 07:08:40 75.68, 76.58 72.11 03/29/2025 07:09:07 75.67, 76.46 72.10 3.74 27
3 03/31/2025 09:16:29 -75.69,-135.35 108.69 03/31/2025 09:16:23 -75.68,-135.28 108.70 2.33 6
4 04/02/2025 11:24:17 75.66, 12.85 70.48 04/02/2025 11:23:48 75.68, 12.88 70.49 1.69 29
5 04/02/2025 12:13:36 -75.72,-179.64 109.48 04/02/2025 12:14:41 -75.71,-179.71 109.49 1.93 65
6 04/04/2025 13:32:03 -75.67, 160.95 110.32 04/04/2025 13:31:04 -75.66, 161.06 110.32 3.20 59
7 04/04/2025 14:21:23 75.71, -31.52 69.72 04/04/2025 14:22:06 75.70, -31.58 69.70 2.61 43
8 04/06/2025 15:39:45 75.49, -50.41 68.73 04/06/2025 15:38:34 75.40, -51.61 68.62 35.00 71
9 04/06/2025 16:29:07 -75.69, 116.67 111.09 04/06/2025 16:29:21 -75.72, 116.71 111.07 3.07 14
10 04/08/2025 18:36:51 75.68, -95.20 68.13 04/08/2025 18:36:46 75.67, -95.25 68.11 2.48 5
11 04/10/2025 20:44:32 -75.66, 53.01 112.67 04/10/2025 20:44:01 -75.68, 53.01 112.66 2.16 31



Historial Predications of SNOs between AQUA and NOAA-19
